Notices

What's New in latest Release from April 7th, 2021:

- Updated Glossary, including Speed of Maximum Gust, and Total Hourly Precipitation

- Updated national and regional climate services offices contacts and prices information

- Addition of station inventory lists for 1981-2010, 1971-2000, and 1961-1990 Normals.

If you haven't already, please take our survey and provide feedback about our website: https://eccc.sondage-survey.ca/f/LanguageSelection.aspx?s=442ca660-fcf1-47c0-95a9-59707d6fd709

Hourly Data Report for March 26, 2021

MIRAMICHI RCS
NEW BRUNSWICK
Current Station Operator: ECCC - MSC

47°00'34.000" N
65°27'54.000" W
33.00 m
8100989
71744
ACQ

Download Data

Hourly Data (March 2021)
Hourly Data Report for March 26, 2021
TIME
LST
Temp Definition
°C
Dew Point Definition
°C
Rel Hum Definition
%
Precip. Amount Definition
mm

Wind Dir Definition
10's deg

Wind Spd Definition
km/h
Visibility Definition
km
Stn Press Definition
kPa
Hmdx Definition


Wind Chill Definition


Weather Definition


00:00 8.3 7.1 92 LegendMM 23 16   100.79     LegendNANA
01:00 7.6 6.9 95 LegendMM 22 17   100.74     LegendNANA
02:00 7.4 6.8 96 LegendMM 23 16   100.73     LegendNANA
03:00 7.2 6.7 97 LegendMM 23 15   100.67     LegendNANA
04:00 6.6 6.3 98 LegendMM 23 13   100.68     LegendNANA
05:00 6.3 6.2 99 LegendMM 21 14   100.64     LegendNANA
06:00 5.9 5.8 99 LegendMM 22 16   100.66     LegendNANA
07:00 5.8 5.7 99 LegendMM 23 11   100.66     LegendNANA
08:00 5.9 5.8 99 LegendMM 22 13   100.65     LegendNANA
09:00 6.4 6.3 99 LegendMM 20 9   100.56     LegendNANA
10:00 7.6 6.8 95 LegendMM 22 5   100.52     LegendNANA
11:00 9.2 6.9 85 LegendMM 24 3   100.48     LegendNANA
12:00 9.6 6.9 83 LegendMM 27 5   100.47     LegendNANA
13:00 9.2 7.0 86 LegendMM 3 7   100.28     LegendNANA
14:00 8.7 7.7 93 LegendMM 3 10   100.16     LegendNANA
15:00 6.8 6.1 95 LegendMM 6 21   99.99     LegendNANA
16:00 2.8 1.9 94 LegendMM 6 28   100.04     LegendNANA
17:00 1.3 0.8 97 LegendMM 6 36   99.89     LegendNANA
18:00 0.6 0.0 96 LegendMM 6 32   100.00     LegendNANA
19:00 0.9 0.0 94 LegendMM 6 39   99.89     LegendNANA
20:00 0.3 -0.4 95 LegendMM 6 38   99.79     LegendNANA
21:00 0.4 -0.6 94 LegendMM 5 31   99.90     LegendNANA
22:00 0.1 -0.5 95 LegendMM 4 24   99.89     LegendNANA
23:00 -0.3 -1.1 95 LegendMM 4 24   99.93   -6 LegendNANA

Notes on Data Quality.

Legend

  • E = Estimated
  • M = Missing
  • NA = Not Available*
  • [empty] = Indicates an unobserved value
Date modified: